FW1312 Weather Reports


time (UTC)temp
C
wind
direction
speed
KPH
gust
KPH
rain 1hr
cm
rain 24hr
cm
rain mn
cm
humidity
%
barometer
mb
20260505224532 28 197 12.9 24.1 0.00 0.00 0.00 80 1004.3
20260505223001 28 184 9.7 29.0 0.00 0.00 0.00 80 1004.4
20260505221550 28 178 6.4 27.4 0.00 0.00 0.00 80 1004.5
20260505220017 28 213 12.9 33.8 0.00 0.00 0.00 81 1004.5
20260505214635 28 197 11.3 24.1 0.00 0.00 0.00 81 1004.7
20260505213039 28 158 12.9 25.7 0.00 0.00 0.00 82 1004.8
20260505211539 28 189 11.3 22.5 0.00 0.00 0.00 82 1005.0
20260505210034 28 248 11.3 29.0 0.00 0.00 0.00 83 1005.2
20260505204517 28 248 12.9 30.6 0.00 0.00 0.00 83 1005.7
20260505203047 28 221 12.9 30.6 0.00 0.00 0.00 84 1006.0
20260505201500 28 250 19.3 32.2 0.00 0.00 0.00 84 1006.0
20260505200019 28 223 17.7 35.4 0.00 0.00 0.00 85 1006.3
20260505194521 27 222 14.5 38.6 0.00 0.00 0.00 85 1006.5
20260505193031 27 193 22.5 40.2 0.00 0.00 0.00 85 1006.6
20260505191606 27 196 17.7 43.5 0.00 0.00 0.00 86 1006.7
20260505190106 27 188 12.9 29.0 0.00 0.00 0.00 86 1006.9
20260505184605 27 186 8.0 37.0 0.00 0.00 0.00 86 1007.0
20260505183110 26 248 9.7 33.8 0.00 0.00 0.00 86 1007.0
20260505181544 26 239 9.7 30.6 0.00 0.00 0.00 86 1007.1
20260505180001 25 218 12.9 35.4 0.00 0.00 0.00 86 1007.1
20260505174607 25 183 8.0 35.4 0.00 0.00 0.00 86 1007.2
20260505173052 25 239 12.9 29.0 0.00 0.00 0.00 86 1007.5
20260505171519 24 180 6.4 25.7 0.00 0.00 0.00 86 1007.6
20260505170104 24 226 8.0 24.1 0.00 0.00 0.00 86 1007.8
20260505164552 24 130 8.0 27.4 0.00 0.00 0.00 86 1007.7
20260505163026 23 236 11.3 32.2 0.00 0.00 0.00 86 1007.8
20260505161508 23 205 12.9 27.4 0.00 0.00 0.00 85 1007.7
20260505153036 22 208 9.7 24.1 0.00 0.00 0.00 85 1008.1
20260505151539 22 232 11.3 32.2 0.00 0.00 0.00 85 1008.0
20260505124542 21 186 8.0 19.3 0.00 0.00 0.00 83 1007.1
20260505123104 21 195 9.7 24.1 0.00 0.00 0.00 83 1007.1
20260505121538 21 225 8.0 19.3 0.00 0.00 0.00 83 1007.1
20260505120058 21 230 8.0 19.3 0.00 0.00 0.00 82 1006.9
20260505114516 21 190 9.7 20.9 0.00 0.00 0.00 82 1006.4
20260505113042 21 213 12.9 32.2 0.00 0.00 0.00 82 1006.8
20260505111540 21 205 11.3 25.7 0.00 0.00 0.00 82 1006.5
20260505031530 22 175 4.8 14.5 0.00 0.00 0.00 71 1008.7
20260505030051 22 182 6.4 16.1 0.00 0.00 0.00 71 1008.5
20260505024534 22 136 6.4 17.7 0.00 0.00 0.00 70 1008.6
20260505023038 22 165 8.0 17.7 0.00 0.00 0.00 70 1008.5
20260505021506 23 137 8.0 17.7 0.00 0.00 0.00 69 1008.4
20260505020008 23 167 9.7 20.9 0.00 0.00 0.00 69 1008.4
20260505014541 23 160 11.3 22.5 0.00 0.00 0.00 69 1008.1
20260505013007 23 159 8.0 19.3 0.00 0.00 0.00 68 1008.2
20260505011501 23 162 9.7 27.4 0.00 0.00 0.00 68 1008.1
20260505010034 24 159 8.0 16.1 0.00 0.00 0.00 67 1008.0
20260505004544 24 150 8.0 20.9 0.00 0.00 0.00 67 1007.9
20260505003033 25 140 8.0 19.3 0.00 0.00 0.00 67 1008.0
20260505001528 25 188 6.4 22.5 0.00 0.00 0.00 67 1008.3
20260505000117 25 161 12.9 24.1 0.00 0.00 0.00 67 1008.3
20260504234530 26 177 9.7 24.1 0.00 0.00 0.00 67 1008.5
20260504233022 26 221 11.3 24.1 0.00 0.00 0.00 67 1008.5
20260504231515 26 138 11.3 22.5 0.00 0.00 0.00 67 1008.5
20260504230044 26 163 9.7 19.3 0.00 0.00 0.00 67 1008.6